PA3EUZ Weather Reports


Display with metric or nautical units.
time (UTC)temp
F
wind
direction
speed
MPH
gust
MPH
rain 1hr
in
rain 24hr
in
rain mn
in
humidity
%
barometer
mb
20260503033018 58 0.0 3.0 0.00 0.19 0.00 94 1010.6
20260503031517 58 0.0 3.0 0.00 0.19 0.00 94 1010.6
20260503030017 58 0.0 1.0 0.00 0.19 0.00 94 1010.6
20260503024517 58 0.0 1.0 0.00 0.19 0.00 94 1010.8
20260503023018 58 0.0 0.0 0.00 0.19 0.00 94 1010.9
20260503021517 58 0.0 0.0 0.00 0.19 0.00 94 1011.5
20260503020018 58 0.0 1.0 0.00 0.19 0.00 94 1011.8
20260503014517 58 180 1.0 5.0 0.00 0.19 0.00 94 1012.0
20260503013017 58 180 1.0 5.0 0.00 0.19 0.00 93 1012.0
20260503011538 57 180 2.0 6.0 0.00 0.19 0.00 93 1011.9
20260503010037 57 0.0 5.0 0.00 0.19 0.00 93 1011.7
20260503004517 57 0.0 5.0 0.00 0.19 0.00 93 1011.7
20260503003018 57 0.0 2.0 0.00 0.19 0.00 93 1011.9
20260503001517 58 0.0 2.0 0.00 0.19 0.00 93 1012.1
20260503000017 58 0.0 1.0 0.00 0.19 0.00 93 1012.1
20260502234518 58 0.0 6.0 0.00 0.19 0.00 93 1012.1
20260502233017 58 0.0 5.0 0.00 0.19 0.00 93 1012.1
20260502231518 58 0.0 5.0 0.00 0.19 0.00 93 1012.2
20260502230018 58 0.0 3.0 0.00 0.19 0.00 93 1012.3
20260502224517 58 68 1.0 7.0 0.01 0.19 0.00 92 1012.4
20260502223017 58 113 1.0 7.0 0.01 0.19 0.00 92 1012.0
20260502221517 58 113 1.0 5.0 0.01 0.19 0.00 92 1012.3
20260502220017 58 113 1.0 11.0 0.01 0.19 0.19 92 1012.4
20260502214516 58 113 2.0 10.0 0.00 0.18 0.18 92 1012.6
20260502213016 58 113 2.0 7.0 0.00 0.18 0.18 92 1012.7
20260502211516 58 0.0 5.0 0.02 0.18 0.18 91 1012.5
20260502210016 58 68 1.0 7.0 0.09 0.18 0.18 91 1012.3
20260502204516 58 68 1.0 7.0 0.13 0.18 0.18 91 1012.7
20260502203016 59 68 1.0 7.0 0.17 0.18 0.18 90 1013.4
20260502201516 59 0.0 3.0 0.16 0.17 0.17 89 1013.7
20260502200056 60 315 2.0 9.0 0.09 0.09 0.09 86 1015.0
20260502194516 65 270 7.0 18.0 0.04 0.05 0.05 80 1014.3
20260502193036 68 45 2.0 18.0 0.00 0.01 0.01 63 1014.3
20260502191516 69 0.0 2.0 0.00 0.01 0.01 63 1013.0
20260502190016 69 0.0 4.0 0.00 0.01 0.01 61 1013.2
20260502184516 69 45 1.0 8.0 0.00 0.01 0.01 61 1012.9
20260502181536 70 0.0 7.0 0.00 0.01 0.01 60 1013.0
20260502163018 76 338 1.0 4.0 0.00 0.01 0.01 55 1013.8
20260502161538 76 0.0 3.0 0.00 0.01 0.01 55 1014.1
20260502151518 77 0.0 4.0 0.00 0.01 0.01 57 1014.8
20260502123018 73 315 1.0 7.0 0.00 0.01 0.01 65 1017.2
20260502121558 72 0.0 4.0 0.00 0.01 0.01 64 1017.3
20260502114517 71 203 1.0 6.0 0.00 0.01 0.01 67 1017.6
20260502113018 71 248 1.0 5.0 0.00 0.01 0.01 67 1017.8
20260502111523 70 248 1.0 7.0 0.00 0.01 0.01 70 1018.0
20260502110018 70 248 1.0 6.0 0.00 0.01 0.01 69 1018.0
20260502104518 69 225 1.0 7.0 0.00 0.01 0.01 72 1018.2
20260502103018 68 248 1.0 5.0 0.00 0.01 0.01 74 1018.2
20260502101536 68 203 1.0 8.0 0.00 0.01 0.01 73 1018.4
20260502091518 66 225 1.0 5.0 0.00 0.01 0.01 76 1018.7
20260502071517 59 0.0 3.0 0.00 0.01 0.01 91 1018.7
20260502070018 57 0.0 1.0 0.00 0.01 0.01 91 1018.7
20260502064518 56 0.0 2.0 0.00 0.01 0.01 91 1018.6
20260502063017 56 0.0 0.0 0.00 0.01 0.01 90 1018.6
20260502061518 56 0.0 0.0 0.00 0.01 0.01 90 1018.6
20260502060017 55 0.0 0.0 0.01 0.01 0.01 89 1018.5
20260502054517 55 0.0 0.0 0.01 0.01 0.01 89 1018.3
20260502053018 54 0.0 0.0 0.01 0.01 0.01 88 1018.4
20260502051517 54 0.0 0.0 0.01 0.01 0.01 86 1018.4
20260502050117 54 0.0 0.0 0.00 0.00 0.00 84 1018.6
20260502044517 53 0.0 1.0 0.00 0.00 0.00 80 1018.4
20260502043037 53 0.0 0.0 0.00 0.00 0.00 74 1018.5
20260502041518 53 0.0 1.0 0.00 0.00 0.00 71 1018.8
20260502040017 53 0.0 0.0 0.00 0.00 0.00 68 1018.7
20260502034537 53 0.0 0.0 0.00 0.00 0.00 68 1018.6